SCP
0 0 0 0 0 0 0 0 0 0 0 0 0 0 0 0 0 0 0 0 0 0 1 1 1 2 2 2 1 1 1 1 1 1 0 0 0 0 0 0 0 0 0 0
0 0 0 0 0 0 0 0 0 0 0 0 0 0 0 0 0 0 0 0 0 0 0 1 1 1 2 2 1 1 1 1 1 1 0 0 0 0 0 0 0 0 0 0
0 0 0 0 0 0 0 0 0 0 0 0 0 0 0 0 0 0 0 0 0 0 0 0 1 1 1 1 1 1 1 1 1 0 0 0 0 0 0 0 0 0 0 0
0 0 0 0 0 0 0 0 0 0 0 0 0 0 0 0 0 0 0 0 0 0 0 0 1 1 0 0 1 1 1 1 1 0 0 0 0 0 0 0 0 0 0 0
0 0 0 0 0 0 0 0 0 0 0 0 0 0 0 0 0 0 0 0 0 0 0 0 0 0 0 0 0 1 1 1 0 0 0 0 0 0 0 0 0 0 0 0
0 0 0 0 0 0 0 0 0 0 0 0 0 0 0 0 0 0 0 0 0 0 0 0 0 0 0 0 0 0 0 0 0 0 0 0 0 0 0 0 0 0 0 0
0 0 0 0 0 0 0 0 0 0 0 0 0 0 0 0 0 0 0 0 0 0 0 0 0 0 0 0 0 0 0 0 0 0 0 0 0 0 0 0 0 0 0 0
0 0 0 0 0 0 0 0 0 0 0 0 0 0 0 0 0 0 0 0 0 0 0 0 0 0 0 0 0 0 0 0 0 0 0 0 0 0 0 0 0 0 0 0
0 0 0 0 0 0 0 0 0 0 0 0 0 0 0 0 0 0 0 0 0 0 0 0 0 0 0 0 0 0 0 0 0 0 0 0 0 0 0 0 0 0 0 0
0 0 0 0 0 0 0 0 0 0 0 0 0 0 0 0 0 0 0 0 0 0 0 0 0 0 0 0 0 0 0 0 0 0 0 0 0 0 0 0 0 0 0 0
0 0 0 0 0 0 0 0 0 0 0 0 0 0 0 0 0 0 0 0 0 0 0 0 0 0 0 0 0 0 0 0 0 0 0 0 0 0 0 0 0 0 0 0
0 0 0 0 0 0 0 0 0 0 0 0 0 0 0 0 0 0 0 0 0 0 0 0 0 0 0 0 0 0 0 0 0 0 0 0 0 0 0 0 0 0 0 0
0 0 0 0 0 0 0 0 0 0 0 0 0 0 0 0 0 -0 -0 0 0 0 0 0 0 0 0 0 0 0 0 0 0 0 0 0 0 0 0 0 0 0 0 0
0 0 0 0 0 0 0 0 0 0 0 0 0 0 0 -0 -0 -0 -0 -0 0 0 0 0 0 0 0 0 0 0 0 0 0 0 0 0 0 0 0 0 0 0 0 0
0 0 0 0 0 0 0 0 0 0 0 0 0 -0 -0 -0 -0 -0 -0 -0 -0 0 0 0 0 0 0 0 0 0 0 0 0 0 0 0 0 0 0 0 0 0 0 0
0 0 0 0 0 0 0 0 0 0 0 0 0 0 0 0 0 0 -0 0 0 0 0 0 0 0 0 0 0 0 0 0 0 0 0 0 0 0 0 0 0 0 0 0
0 0 0 0 0 0 0 0 0 0 0 0 0 0 0 0 0 0 0 0 0 0 0 0 0 0 0 0 0 0 0 0 0 0 0 0 0 0 0 0 0 0 0 0
0 0 0 0 0 0 0 0 0 0 0 0 0 0 0 0 0 0 0 0 0 0 0 0 0 0 0 0 0 0 0 0 0 0 0 0 0 0 0 0 0 0 0 0
0 0 0 0 0 0 0 0 0 0 0 0 0 0 0 0 0 0 0 0 0 0 0 0 0 0 0 0 0 0 0 0 0 0 0 0 0 0 0 0 0 0 0 0
0 0 0 0 0 0 0 0 0 0 0 0 0 0 0 0 0 0 0 0 0 0 0 0 0 0 0 0 0 0 0 0 0 0 0 0 0 0 0 0 0 0 0 0
0 0 0 0 0 0 0 0 0 0 0 0 0 0 0 0 0 0 0 0 0 0 0 0 0 0 0 0 0 0 0 0 0 0 0 0 0 0 0 0 0 0 0 0
0 0 0 0 0 0 0 0 0 0 0 0 0 0 0 0 0 0 0 0 0 0 0 0 0 0 0 0 0 0 0 0 0 0 0 0 0 0 0 0 0 0 0 0
0 0 0 0 0 0 0 0 0 0 0 0 0 0 0 0 0 0 0 0 0 0 0 0 0 0 0 0 0 0 0 0 0 0 0 0 0 0 0 0 0 0 0 0
0 0 0 0 0 0 0 0 0 0 0 0 0 0 0 0 0 0 0 0 0 0 0 0 0 0 0 0 0 0 0 0 0 0 0 0 0 0 0 0 0 0 0 0
0 0 0 0 0 0 0 0 0 0 0 0 0 0 0 0 0 0 0 0 0 0 0 0 0 0 0 0 0 0 0 0 0 0 0 0 0 0 0 0 0 0 0 0
0 0 0 0 0 0 0 0 0 0 0 0 0 0 0 0 0 0 0 0 0 0 0 0 0 0 0 0 0 0 0 0 0 0 0 0 0 0 0 0 0 0 0 0
0 0 0 0 0 0 0 0 0 0 0 0 0 0 0 0 0 0 0 0 0 0 0 0 0 0 0 0 0 0 0 0 0 0 0 0 0 0 0 0 0 0 0 0
Wind_Speed
5 4 3 4 4 6 7 8 8 8 8 9 6 6 7 6 5 5 6 7 9 10 10 9 9 9 10 10 9 9 10 10 10 9 8 7 7 7 7 7 7 6 6 6
2 1 2 3 5 5 6 5 6 5 8 5 5 3 2 3 4 6 7 8 9 9 9 10 11 11 10 10 10 9 10 11 9 8 8 8 8 7 7 7 6 6 6 7
3 3 1 5 5 5 4 4 5 7 6 3 4 3 2 2 3 5 6 6 7 9 10 11 11 11 12 12 9 10 10 9 9 9 9 9 8 7 8 8 7 7 7 7
1 1 5 6 1 2 3 2 3 4 5 4 4 1 2 2 0 2 2 3 4 5 6 6 7 7 7 7 9 10 9 8 8 8 9 7 7 8 8 6 6 7 7 8
3 1 5 4 1 1 1 3 2 3 5 4 2 2 4 6 4 2 1 1 2 3 3 4 5 6 7 7 7 7 8 8 9 9 9 8 8 8 7 6 6 7 6 8
3 2 5 5 1 1 2 4 2 1 3 3 1 2 2 7 6 5 4 3 3 2 3 3 3 5 6 6 6 8 9 8 7 7 8 8 8 7 5 5 7 7 7 8
3 3 7 4 1 2 3 4 1 1 2 3 3 1 2 5 6 6 6 7 5 6 5 3 3 5 5 4 6 6 4 4 5 5 6 6 5 5 5 5 5 6 8 8
4 3 7 1 2 3 4 0 1 2 3 4 4 3 4 6 7 8 9 9 8 7 6 5 4 4 3 3 3 2 3 4 4 4 5 5 5 4 4 4 5 6 6 8
8 7 4 1 1 0 2 2 1 2 3 5 6 6 6 7 7 8 9 9 8 8 7 7 5 3 1 1 1 2 3 3 3 3 3 3 4 4 3 4 4 5 5 7
2 4 3 1 1 2 3 3 3 4 5 6 7 6 7 7 7 7 8 8 8 9 9 7 6 5 3 2 1 1 1 1 1 2 2 2 2 3 3 4 4 5 5 7
3 3 1 1 2 4 5 6 8 8 7 7 9 8 7 6 7 6 7 7 7 7 7 6 5 5 5 4 2 2 2 1 1 0 1 1 2 3 4 5 5 6 6 6
6 5 4 1 2 5 7 7 8 9 9 7 8 7 7 6 5 6 6 6 6 6 5 5 5 5 5 4 3 3 3 2 1 1 1 1 2 3 5 7 9 11 12 11
2 2 4 5 5 7 8 8 8 9 8 7 6 6 6 5 4 5 5 5 5 4 4 4 5 5 5 4 4 4 3 2 2 2 2 2 2 3 5 6 7 10 12 13
3 6 7 5 6 8 9 9 9 9 8 7 5 5 5 5 4 5 4 3 3 3 3 3 4 4 4 3 4 3 2 2 2 2 2 3 3 4 4 5 7 6 7 10
7 7 8 8 9 9 8 9 9 8 6 6 5 4 4 4 3 2 2 2 2 3 3 3 3 3 3 3 2 2 2 2 2 2 3 3 4 4 5 6 6 7 8 9
9 11 11 12 10 8 8 8 8 5 4 4 4 3 2 2 1 2 2 2 2 2 3 3 3 4 3 2 2 2 2 5 4 3 3 4 4 5 5 6 7 7 8 8
9 8 8 9 8 7 6 5 4 3 3 2 1 1 1 2 2 3 4 3 2 3 4 3 5 5 4 3 2 3 3 5 7 5 4 5 5 6 6 7 7 8 8 9
9 8 8 7 6 5 4 4 3 2 1 0 1 1 2 2 2 4 4 4 4 5 5 5 5 5 4 4 3 3 4 4 4 5 5 6 6 6 7 7 8 10 9 10
10 10 9 8 5 4 3 2 2 2 2 1 2 2 3 3 4 4 4 3 4 5 6 6 7 5 5 6 5 3 4 5 5 5 6 7 7 7 7 8 9 9 9 9
9 8 7 5 4 3 1 0 1 2 2 2 2 3 4 5 4 4 3 3 4 5 6 6 6 5 5 6 7 3 4 5 6 6 6 6 7 7 7 8 9 9 9 9
6 5 4 2 1 1 1 1 2 3 3 2 2 3 4 5 4 3 2 4 6 5 5 6 5 5 5 5 6 4 5 5 6 6 6 7 7 7 8 8 9 9 9 9
3 2 1 1 1 2 3 2 2 3 3 3 3 3 4 5 5 4 3 4 6 8 6 5 5 6 7 7 4 4 5 6 6 6 6 6 7 7 8 8 8 8 8 8
1 1 2 2 2 2 3 3 3 2 2 3 3 4 3 3 3 3 5 4 5 7 6 5 7 9 9 5 4 5 5 6 6 6 6 6 7 7 7 8 8 8 8 8
1 1 2 2 1 1 2 3 3 2 3 3 3 3 3 3 3 3 4 6 8 8 5 5 8 9 8 4 4 5 5 5 6 6 6 6 6 6 7 7 8 8 8 10
1 1 2 2 1 2 2 3 3 3 3 3 4 4 3 2 3 4 4 6 7 7 4 5 7 8 6 5 5 5 5 5 6 6 6 6 6 6 7 7 7 7 8 8
2 2 2 2 2 2 2 2 2 3 3 4 4 4 4 3 4 4 4 5 6 5 4 4 5 6 5 5 5 6 6 6 6 6 6 6 7 7 7 7 9 7 7 7
2 2 2 2 2 2 2 2 2 3 3 3 4 4 4 4 4 4 5 5 4 4 4 4 4 4 5 5 5 5 5 6 6 6 6 6 6 6 7 8 7 6 6 6
Wind_Direction
237 234 196 222 214 181 187 192 195 230 232 258 270 260 250 233 223 215 212 204 203 203 202 195 190 188 187 186 180 176 176 185 197 197 195 195 198 204 206 207 213 214 217 226
282 266 220 246 250 216 212 210 220 248 260 261 285 289 271 222 198 213 222 217 211 205 198 195 194 191 186 186 181 174 183 195 196 190 193 199 204 205 205 211 216 214 220 226
262 315 9 267 246 210 208 207 195 222 246 310 314 321 295 246 199 212 224 219 211 208 205 202 197 189 190 189 172 178 192 197 191 190 198 205 205 202 209 213 213 218 226 228
170 26 240 250 295 184 183 222 234 255 271 277 257 245 40 22 243 224 239 231 225 217 211 205 192 185 180 167 171 183 192 197 194 193 203 204 201 209 214 211 213 222 230 231
119 207 279 291 244 131 165 265 231 260 294 302 259 125 34 11 1 350 317 221 204 202 198 178 175 169 154 163 170 182 197 201 197 194 199 199 206 213 212 209 219 223 227 230
130 179 244 252 219 143 115 283 267 247 305 318 10 70 344 343 346 6 26 32 49 74 93 113 136 136 149 168 173 195 203 203 196 193 197 204 211 212 208 209 225 229 237 236
158 218 262 263 264 115 158 253 341 37 358 26 53 95 305 340 4 13 30 35 49 71 75 71 99 125 148 163 201 211 188 176 181 188 197 205 206 205 206 211 224 234 244 249
152 199 259 290 107 171 211 257 64 63 62 77 79 49 27 24 27 28 34 37 44 60 58 53 75 114 140 196 219 167 165 180 193 196 203 206 202 210 208 210 228 242 249 260
185 209 242 260 182 168 141 124 105 104 93 93 78 57 43 38 36 38 42 45 47 55 54 48 49 76 102 330 100 158 163 186 202 200 205 207 202 215 215 214 229 247 250 261
234 267 258 236 154 108 108 113 103 99 93 94 91 77 59 46 40 39 40 42 49 57 55 40 32 40 36 15 35 121 148 198 201 197 218 217 216 216 218 225 235 248 255 261
243 264 327 349 141 128 108 98 91 85 85 90 89 76 67 56 41 39 44 42 47 55 56 42 34 32 28 27 53 73 65 49 36 29 234 243 242 236 233 234 231 242 256 258
223 223 166 177 136 121 107 100 104 99 82 72 84 86 76 63 47 44 45 44 49 50 52 40 39 35 22 21 49 69 56 40 30 5 343 308 293 296 261 253 266 260 257 261
219 115 114 108 97 97 102 102 99 97 96 87 73 77 78 67 51 51 49 48 49 47 43 37 37 29 12 14 42 59 57 34 14 1 345 330 320 309 306 301 279 271 268 269
112 101 87 82 95 94 99 97 92 84 78 78 75 70 71 68 57 55 47 38 44 46 36 33 35 14 354 15 45 48 38 15 357 329 316 309 304 297 291 295 303 300 289 281
58 86 107 99 88 86 91 94 86 76 71 63 62 66 69 71 62 40 9 15 38 33 12 9 10 341 338 9 32 25 4 329 315 307 302 296 296 296 293 289 286 289 296 298
79 79 87 90 89 86 85 88 89 80 73 66 57 50 48 64 45 3 350 1 22 341 319 320 307 299 316 334 334 323 310 310 311 301 300 300 299 298 296 293 291 290 291 292
92 86 88 91 89 85 81 84 95 96 84 75 55 26 32 33 10 340 326 325 310 288 286 280 276 288 299 292 284 288 295 304 311 308 297 294 294 294 293 292 291 292 290 288
94 98 100 99 97 88 70 63 69 80 92 329 7 21 5 344 307 296 302 320 326 316 302 284 281 289 289 283 273 272 279 286 291 293 295 294 294 293 293 292 292 294 295 296
85 90 90 90 91 88 75 45 2 338 336 351 355 328 307 297 292 296 310 325 320 306 296 300 306 301 290 285 286 267 274 283 288 289 290 291 294 296 295 295 295 296 297 299
80 83 85 83 80 88 103 281 304 320 327 336 335 328 320 312 312 312 310 292 269 263 280 299 305 300 295 294 299 279 278 282 286 290 292 291 292 295 295 296 298 300 300 299
76 77 78 78 56 17 344 332 335 326 323 330 322 304 301 305 311 311 303 299 293 294 299 302 303 298 298 299 303 293 288 287 289 291 294 294 294 294 296 298 300 301 302 303
62 56 22 332 329 326 328 332 324 320 329 334 329 321 317 316 319 313 275 260 282 305 310 303 302 301 307 310 306 302 298 297 297 297 296 297 297 298 300 302 302 303 306 307
188 248 277 294 297 303 326 339 340 334 328 324 319 316 308 298 292 296 302 299 302 311 313 305 311 318 322 321 311 307 306 306 306 304 302 303 303 303 304 305 305 306 309 309
281 295 298 308 339 1 333 319 322 317 313 313 310 307 304 310 307 286 276 299 312 316 315 317 327 332 332 326 320 317 315 314 312 309 308 307 307 307 307 308 307 308 309 311
336 341 351 1 352 304 290 305 320 324 326 319 315 314 305 278 276 296 306 312 318 321 323 333 340 340 338 331 329 325 322 321 320 318 315 315 314 311 309 309 309 311 312 314
346 325 303 283 269 271 281 294 301 305 311 312 313 314 318 320 316 315 317 321 327 332 336 340 345 347 345 342 340 337 334 333 332 330 325 321 317 315 314 316 317 316 317 320
340 330 320 319 312 300 292 287 288 294 295 294 299 307 314 321 325 327 328 328 332 338 344 350 353 352 351 351 351 350 346 342 338 334 329 325 322 322 323 322 323 324 326 329